EDT,Max TemperatureF,Mean TemperatureF,Min TemperatureF,Max Dew PointF,MeanDew PointF,Min DewpointF,Max Humidity, Mean Humidity, Min Humidity, Max Sea Level PressureIn, Mean Sea Level PressureIn, Min Sea Level PressureIn, Max VisibilityMiles, Mean VisibilityMiles, Min VisibilityMiles, Max Wind SpeedMPH, Mean Wind SpeedMPH, Max Gust SpeedMPH,PrecipitationIn, CloudCover, Events, WindDirDegrees
2013-3-1,31,28,24,28,21,17,87,74,66,30.13,30.05,29.96,10,10,10,14,7,,0.00,7,,24
2013-3-2,29,24,21,18,16,13,80,69,59,30.12,30.09,30.06,10,10,10,10,5,,0.00,5,,351
2013-3-3,31,22,14,18,15,12,88,70,54,30.09,30.06,30.02,10,10,10,16,5,21,0.00,3,,323
2013-3-4,31,22,12,18,14,9,89,70,49,30.14,30.09,30.04,10,10,10,7,1,,0.00,2,,91
2013-3-5,32,29,26,27,21,16,92,72,60,30.07,29.90,29.77,10,7,1,18,9,24,0.00,8,Snow,74
2013-3-6,35,31,27,28,25,22,84,78,70,30.23,30.09,29.86,10,10,10,15,9,22,0.00,8,,350
2013-3-7,36,31,24,28,25,20,87,73,53,30.40,30.32,30.22,10,10,10,9,5,,0.00,7,,322
2013-3-8,38,28,17,24,21,15,93,75,51,30.49,30.44,30.38,10,9,3,7,1,,0.00,0,,191
2013-3-9,42,34,25,32,26,22,86,70,56,30.38,30.19,29.96,10,10,10,14,4,20,0.00,3,,147
2013-3-10,58,48,40,43,37,32,82,63,53,29.96,29.84,29.71,10,10,7,17,6,23,0.00,6,Rain,169
2013-3-11,54,44,34,47,41,31,95,86,53,29.72,29.63,29.52,10,7,2,22,9,28,0.00,8,Rain,206
2013-3-12,34,32,30,30,27,22,92,81,64,29.91,29.85,29.73,10,8,1,15,10,28,0.00,8,Snow,255
2013-3-13,30,26,21,26,19,12,88,75,59,30.26,30.09,29.91,10,7,1,22,12,30,0.00,6,Snow,292
2013-3-14,40,28,17,24,17,12,85,63,40,30.28,30.21,30.11,10,10,10,12,3,10,0.00,1,,255
2013-3-15,45,38,30,36,31,24,93,82,61,30.10,29.92,29.80,10,6,2,9,4,,0.00,4,Rain,261
2013-3-16,36,32,27,35,28,21,95,86,70,30.07,29.85,29.69,10,8,2,13,7,20,0.00,8,Rain,21
2013-3-17,34,30,27,21,18,16,77,64,51,30.23,30.15,30.07,10,10,10,15,8,22,0.00,4,,68
2013-3-18,33,30,26,32,26,18,96,86,70,30.09,29.76,29.57,10,6,1,21,10,31,0.00,6,Rain-Snow,118
2013-3-19,31,25,19,22,16,13,83,68,50,29.98,29.84,29.70,10,8,1,26,16,37,0.00,6,Snow,261
2013-3-20,28,21,14,17,13,10,86,69,56,29.99,29.97,29.95,10,7,1,22,13,26,0.00,6,Snow,281
2013-3-21,28,20,13,23,17,10,89,79,66,30.00,29.95,29.91,10,7,1,21,7,23,0.00,7,Snow,277
2013-3-22,37,30,23,22,19,17,80,65,48,30.05,30.00,29.97,10,10,10,12,5,20,0.00,4,,294
2013-3-23,35,28,21,22,20,18,89,74,56,30.12,30.06,30.02,10,10,10,9,2,,0.00,3,,15
2013-3-24,36,31,26,25,23,21,83,71,57,30.02,29.81,29.62,10,10,10,23,10,30,0.00,5,,60
2013-3-25,36,33,30,28,24,21,77,70,59,29.97,29.73,29.58,10,10,3,15,12,25,0.00,8,Snow,3
2013-3-26,41,36,32,29,27,25,83,74,57,30.18,30.08,29.97,10,10,5,20,9,24,0.00,8,Snow,314
2013-3-27,43,36,29,31,24,17,91,64,38,30.27,30.23,30.18,10,10,10,22,9,26,0.00,4,,295
2013-3-28,50,38,27,28,23,20,82,59,34,30.31,30.28,30.26,10,10,10,13,6,17,0.00,1,,295
2013-3-29,51,36,22,28,20,17,91,57,28,30.31,30.27,30.22,10,10,7,14,2,18,0.00,0,,306
2013-3-30,54,38,21,32,24,18,90,59,31,30.24,30.11,29.91,10,10,7,14,3,18,0.00,1,,202
2013-3-31,58,48,37,42,34,26,93,64,36,29.90,29.75,29.67,10,9,1,24,7,31,0.00,5,Rain,263